Regional Weather Roundup
Issued by NWS

Home | Current Version | Previous Version | Graphics & Text | Print | Product List | Glossary On
Versions: 1 2 3 4 5 6 7 8 9 10 11 12 13 14 15 16 17 18 19 20 21 22 23 24 25 26 27 28 29 30 31 32 33 34 35 36 37 38 39 40 41 42 43 44 45 46 47 48 49 50
000
ASUS43 KOAX 231602
RWRNE

WEATHER ROUNDUP FOR NEBRASKA
NATIONAL WEATHER SERVICE OMAHA NE
1100 AM CDT THU MAR 23 2017

NOTES: SATELLITE DATA IS BEING USED TO AUGMENT CLOUD COVER ABOVE
       12000 FEET.
       "FAIR" INDICATES FEW OR NO CLOUDS BELOW 12,000 FEET WITH NO
       SIGNIFICANT WEATHER AND/OR OBSTRUCTIONS TO VISIBILITY.

  * THESE STATIONS DO NOT REPORT WEATHER SUCH AS RAIN...SNOW OR FOG.

NEZ001>004-019>022-054>056-231700-
NEBRASKA PANHANDLE

CITY           SKY/WX    TMP DP  RH WIND       PRES   REMARKS
SCOTTSBLUFF    SUNNY     48  36  63 W5        29.67F
ALLIANCE       PTSUNNY   43  38  82 S5        29.67F
CHADRON        SUNNY     56  40  55 W9        29.65S
KIMBALL        SUNNY     62  41  45 N12       29.66F
SIDNEY         SUNNY     46  38  73 NW7       29.68S
$$

NEZ057>060-069>072-079>082-231700-
SOUTHWEST NEBRASKA

CITY           SKY/WX    TMP DP  RH WIND       PRES   REMARKS
NORTH PLATTE   CLOUDY    50  47  89 SE7       29.71F FOG
IMPERIAL       SUNNY     56  48  74 S9        29.67F
LEXINGTON      FOG       51  49  95 S15       29.73F VSB 3/4
MCCOOK         CLOUDY    56  56 100 SE10      29.69F FOG
OGALLALA       SUNNY     56  47  71 S7        29.68F
$$

NEZ005>010-023>029-035>040-094-231700-
NORTH CENTRAL NEBRASKA

CITY           SKY/WX    TMP DP  RH WIND       PRES   REMARKS
VALENTINE      CLOUDY    47  40  76 S17       29.70S
AINSWORTH      CLOUDY    47  44  88 S12       29.71S
BROKEN BOW     LGT RAIN  49  32  52 SE10      29.74F
O`NEILL        CLOUDY    49  43  79 S18G30    29.75F
ORD            FOG       48  46  93 SE12      29.76F VSB 1
THEDFORD       CLOUDY    49  47  90 S13       29.71S FOG
$$

NEZ041-046>049-061>064-073>077-083>087-231700-
SOUTH CENTRAL NEBRASKA

CITY           SKY/WX    TMP DP  RH WIND       PRES   REMARKS
GRAND ISLAND   CLOUDY    49  49 100 S17G25    29.79F FOG
AURORA         CLOUDY    52  47  84 S22       29.80F
HASTINGS       CLOUDY    50  48  93 S17G23    29.79F FOG
HEBRON         CLOUDY    55  47  74 SE21G26   29.84F
HOLDREGE       FOG       50  49  96 SE16      29.75F VSB 1/2
KEARNEY *      CLOUDY    52  46  82 S18G25    29.76F
YORK           CLOUDY    54  46  76 S20G28    29.82F
$$

NEZ011>018-030>034-042>045-231700-
NORTHEAST NEBRASKA

CITY           SKY/WX    TMP DP  RH WIND       PRES   REMARKS
NORFOLK        CLOUDY    51  42  71 S23G29    29.82F
ALBION         CLOUDY    50  45  83 SE16G23   29.80F HAZE
BLAIR          CLOUDY    51  35  54 SE20G26   29.90F
FREMONT        CLOUDY    52  36  54 SE16G28   29.88F
TEKAMAH        CLOUDY    52  35  52 SE28      29.89F
WAYNE          CLOUDY    49  41  72 S23       29.84S
$$

NEZ050>053-065>068-078-088>093-231700-
SOUTHEAST NEBRASKA

CITY           SKY/WX    TMP DP  RH WIND       PRES   REMARKS
LINCOLN        CLOUDY    56  39  53 SE20G28   29.88F
OMAHA EPPLEY   CLOUDY    53  33  46 SE23G29   29.92F
BEATRICE       CLOUDY    58  43  57 SE14G25   29.87F
FALLS CITY     SUNNY     60  40  47 S21G33    29.95F
NEBRASKA CITY  CLOUDY    55  29  36 S18       29.93F
PLATTSMOUTH    CLOUDY    53  29  39 SE23G29   29.92F
$$

NEZ044-045-051>053-067-231700-
OMAHA AREA

CITY           SKY/WX    TMP DP  RH WIND       PRES   REMARKS
OMAHA EPPLEY   CLOUDY    53  33  46 SE23G29   29.92F
BLAIR          CLOUDY    51  35  54 SE20G26   29.90F
FREMONT        CLOUDY    52  36  54 SE16G28   29.88F
MILLARD        CLOUDY    54  36  50 SE17      29.91F
OFFUTT AFB     CLOUDY    53  32  45 SE20G29   29.92F
PLATTSMOUTH    CLOUDY    53  29  39 SE23G29   29.92F
WAHOO          CLOUDY    54  35  49 S21G28    29.88F
$$



USA.gov is the U.S. government's official web portal to all federal, state and local government web resources and services.